Weather in Vostok

Russia / Primorsky Krai     46°26′50″N   135°49′32″E
temp.,
°C
wind,
m/s
gust,
m/s
humid.,
%
clouds,
%
prec.,
mm/h
press.,
hPa
HPBL,
m
10 may, mon
mon1001:00+4ese0096100 0.0 100436
04:00+4nw0197100 0.0 100457
07:00+5wnw1198100 0.1 1006121
10:00+5nw2495100 0.3 1007578
13:00+6nw2386100 0.1 1008824
16:00+6nnw2381100 0.3 1009819
19:00+5wnw1286100 0.1 1011254
22:00+4wsw1186100 0.1 101317
11 may, tue
tue1101:00+4wsw118795 0.0 101311
04:00+2wsw119467 0.0 101411
07:00+3w018770 0.0 1016101
10:00+7nnw226599 0.0 1016888
13:00+11nnw2348100 0.1 10161726
16:00+9nw125498 0.1 10161189
19:00+9nnw116097 0.0 101737
22:00+5s117438 0.1 101911
12 may, wed
wed1201:00+3se22835 0.0 102019
04:00+2sse228856 0.0 102028
07:00+4se2377100 0.0 101998
10:00+12sse3547100 0.0 1016968
13:00+15ssw3640100 0.0 10131591
16:00+14s4646100 0.0 10111435
19:00+11s4960100 0.0 10111209
22:00+7s2595100 3.5 1013312
13 may, thu
thu1301:00+7s3990100 0.9 1012647
04:00+6s379192 0.9 1012355
07:00+7ssw398847 0.0 1012488
10:00+13sw37595 0.0 1011952
13:00+18wsw512400 0.0 10092350
16:00+18w6104167 0.0 10083046
19:00+12nw147781 2.9 1010201
22:00+8sse339092 4.5 101240
14 may, fri
fri1401:00+8sse2390100 0.3 101256
04:00+8sse2391100 0.7 101246
07:00+10sse128599 0.0 101270
10:00+17ssw245119 0.0 1010928
13:00+21sw353270 0.0 10082681
16:00+22ssw4826100 0.0 10052947
19:00+18s51040100 0.0 1005774
22:00+13sse3549100 0.0 1004132